Weather History for Statesville, NC

Change the Weather History Date:

Tuesday, June 11, 2013

  Actual Average (KHKY) Record (KHKY)
Temperature  
Mean Temperature 74 °F -  
Max Temperature 82 °F 82 °F 94 °F (1956)
Min Temperature 64 °F 60 °F 41 °F (1972)
Cooling Degree Days 9    
Growing Degree Days 24 (Base 50)    
Moisture  
Dew Point 63 °F    
Average Humidity 73    
Maximum Humidity 100    
Minimum Humidity 48    
Precipitation  
Precipitation 0.04 in - - ()
Sea Level Pressure  
Sea Level Pressure 29.98 in    
Wind  
Wind Speed 5 mph (WSW)    
Max Wind Speed 13 mph    
Max Gust Speed 21 mph    
Visibility 9 miles    
Events Rain    
Averages and records for this station are not official NWS values.
T = Trace of Precipitation, MM = Missing Value Source: NWS Daily Summary

Daily Weather History Graph

Daily Weather History Graph

Search for Another Location

Airport:

Trip Planner

Search our weather history database for the weather conditions in past years. The results will help you decide how hot, cold, wet, or windy it might be!

Date:

Astronomy

Jun. 11, 2013 Rise Set
Actual Time 6:07 AM EDT 8:40 PM EDT
Civil Twilight 5:37 AM EDT 9:10 PM EDT
Nautical Twilight 5:00 AM EDT 9:47 PM EDT
Astronomical Twilight 4:18 AM EDT 10:28 PM EDT
Moon 8:45 AM EDT (6/11) 10:47 PM EDT (6/11)
Length of Visible Light 15h 32m
Length of Day
14h 32m
Waxing Crescent, 8% of the Moon is Illuminated
Jun 11
Waxing Crescent
Jun 16
First Quarter
Jun 23
Full
Jun 30
Last Quarter
Jul 8
New

Hourly Weather History & Observations

Time (EDT) Temp. Heat Index Dew Point Humidity Pressure Visibility Wind Dir Wind Speed Gust Speed Precip Events Conditions
12:15 AM 66.4 °F - 64.0 °F 92% 29.98 in 10.0 mi SSW 5.8 mph - N/A   Clear
12:35 AM 66.2 °F - 64.0 °F 93% 29.95 in 10.0 mi South 5.8 mph - N/A   Clear
12:55 AM 66.2 °F - 64.4 °F 94% 29.94 in 10.0 mi South 3.5 mph - N/A   Scattered Clouds
1:15 AM 66.2 °F - 64.2 °F 93% 29.95 in 7.0 mi SW 4.6 mph - N/A   Scattered Clouds
1:35 AM 66.6 °F - 64.6 °F 93% 29.95 in 10.0 mi SSW 4.6 mph - N/A   Mostly Cloudy
1:55 AM 67.1 °F - 64.8 °F 92% 29.95 in 10.0 mi WSW 5.8 mph - N/A   Overcast
2:15 AM 67.6 °F - 65.3 °F 92% 29.96 in 10.0 mi WSW 5.8 mph - N/A Rain Light Rain
2:35 AM 68.0 °F - 65.7 °F 92% 29.97 in 7.0 mi WSW 6.9 mph - 0.01 in Rain Light Rain
2:55 AM 67.6 °F - 65.5 °F 93% 29.96 in 7.0 mi SSW 4.6 mph - 0.01 in   Mostly Cloudy
3:15 AM 67.6 °F - 65.7 °F 93% 29.96 in 5.0 mi SSW 5.8 mph - 0.01 in Rain Rain
3:35 AM 67.5 °F - 65.3 °F 93% 29.95 in 10.0 mi SW 4.6 mph - 0.02 in   Mostly Cloudy
3:55 AM 67.3 °F - 65.3 °F 93% 29.95 in 7.0 mi SSW 3.5 mph - 0.02 in   Mostly Cloudy
4:15 AM 67.3 °F - 65.5 °F 94% 29.95 in 7.0 mi Calm Calm - 0.01 in   Mostly Cloudy
4:54 AM 66.2 °F - 64.4 °F 94% 29.95 in 5.0 mi Calm Calm - 0.01 in   Clear
5:03 AM 66.2 °F - 64.4 °F 94% 29.96 in 4.0 mi Calm Calm - N/A   Scattered Clouds
5:24 AM 66.2 °F - 64.4 °F 94% 29.95 in 2.5 mi Calm Calm - N/A   Overcast
5:44 AM 66.2 °F - 64.4 °F 94% 29.95 in 4.0 mi Calm Calm - N/A   Overcast
6:05 AM 66.2 °F - 64.4 °F 94% 29.96 in 4.0 mi Calm Calm - N/A   Mostly Cloudy
6:26 AM 66.2 °F - 64.4 °F 94% 29.96 in 3.0 mi Calm Calm - N/A   Overcast
6:45 AM 66.2 °F - 66.2 °F 100% 29.97 in 4.0 mi West 4.6 mph - N/A   Overcast
7:07 AM 68.0 °F - 66.2 °F 94% 29.98 in 4.0 mi WSW 4.6 mph - N/A   Overcast
7:27 AM 68.0 °F - 66.2 °F 94% 29.98 in 5.0 mi WSW 5.8 mph - N/A   Overcast
7:48 AM 69.8 °F - 66.2 °F 88% 29.99 in 5.0 mi West 8.1 mph - N/A   Overcast
8:27 AM 69.8 °F - 66.2 °F 88% 30.00 in 10.0 mi West 5.8 mph - N/A   Scattered Clouds
8:49 AM 71.6 °F - 66.2 °F 83% 30.00 in 10.0 mi WSW 5.8 mph - N/A   Clear
9:08 AM 71.6 °F - 66.2 °F 83% 30.01 in 10.0 mi West 6.9 mph - N/A   Clear
9:44 AM 73.4 °F - 66.2 °F 78% 30.01 in 10.0 mi West 5.8 mph - N/A   Clear
10:04 AM 75.2 °F - 66.2 °F 73% 30.00 in 10.0 mi West 11.5 mph - N/A   Clear
10:24 AM 75.2 °F - 64.4 °F 69% 30.00 in 10.0 mi WSW 10.4 mph - N/A   Scattered Clouds
10:44 AM 77.0 °F - 64.4 °F 65% 30.01 in 10.0 mi West 6.9 mph - N/A   Scattered Clouds
11:04 AM 77.0 °F - 62.6 °F 61% 30.01 in 10.0 mi West 8.1 mph 17.3 mph N/A   Clear
11:24 AM 77.0 °F - 62.6 °F 61% 30.02 in 10.0 mi West 12.7 mph 20.7 mph N/A   Clear
11:44 AM 77.0 °F - 60.8 °F 57% 30.02 in 10.0 mi NW 9.2 mph 16.1 mph N/A   Clear
12:04 PM 77.0 °F - 60.8 °F 57% 30.02 in 10.0 mi West 8.1 mph - N/A   Scattered Clouds
12:15 PM 77.2 °F - 61.9 °F 59% 30.01 in 10.0 mi West 9.2 mph - N/A   Scattered Clouds
12:35 PM 79.3 °F - 63.3 °F 58% 30.01 in 10.0 mi WNW 8.1 mph - N/A   Scattered Clouds
12:55 PM 79.2 °F - 62.4 °F 56% 30.00 in 10.0 mi West 8.1 mph - N/A   Scattered Clouds
1:15 PM 79.7 °F - 62.4 °F 55% 30.00 in 10.0 mi WSW 8.1 mph - N/A   Scattered Clouds
1:35 PM 77.5 °F - 60.6 °F 56% 30.00 in 10.0 mi WSW 4.6 mph - N/A   Mostly Cloudy
1:55 PM 77.5 °F - 61.5 °F 58% 30.00 in 10.0 mi SW 4.6 mph - N/A   Mostly Cloudy
2:15 PM 80.2 °F 81.5 °F 62.8 °F 55% 29.99 in 10.0 mi West 6.9 mph - N/A   Scattered Clouds
2:35 PM 80.8 °F 82.0 °F 62.6 °F 54% 29.99 in 10.0 mi WSW 6.9 mph - N/A   Clear
2:55 PM 81.7 °F 83.3 °F 64.4 °F 56% 30.00 in 10.0 mi WSW 4.6 mph - N/A   Clear
3:15 PM 81.9 °F 83.4 °F 64.0 °F 55% 29.99 in 10.0 mi West 8.1 mph - N/A   Scattered Clouds
3:35 PM 81.5 °F 82.7 °F 62.8 °F 53% 29.99 in 10.0 mi WSW 6.9 mph - N/A   Scattered Clouds
3:55 PM 79.5 °F - 61.9 °F 55% 29.99 in 10.0 mi Calm Calm - N/A   Scattered Clouds
4:15 PM 81.5 °F 82.0 °F 60.3 °F 48% 29.99 in 10.0 mi Calm Calm - N/A   Scattered Clouds
4:35 PM 82.6 °F 83.2 °F 61.5 °F 49% 29.98 in 10.0 mi West 8.1 mph - N/A   Scattered Clouds
4:55 PM 82.9 °F 84.0 °F 63.1 °F 51% 29.98 in 10.0 mi West 8.1 mph - N/A   Clear
5:15 PM 82.8 °F 83.8 °F 63.0 °F 51% 29.97 in 10.0 mi WSW 6.9 mph - N/A   Clear
5:35 PM 82.4 °F 83.2 °F 61.9 °F 50% 29.96 in 10.0 mi WSW 5.8 mph - N/A   Clear
5:55 PM 82.4 °F 82.9 °F 61.2 °F 48% 29.96 in 10.0 mi West 6.9 mph - N/A   Clear
6:15 PM 82.0 °F 83.3 °F 63.3 °F 53% 29.96 in 10.0 mi West 4.6 mph - N/A   Clear
6:35 PM 81.9 °F 83.1 °F 63.0 °F 53% 29.96 in 10.0 mi West 4.6 mph - N/A   Clear
6:55 PM 80.6 °F 81.7 °F 62.1 °F 53% 29.97 in 10.0 mi West 6.9 mph - N/A   Clear
7:15 PM 80.2 °F 81.4 °F 62.2 °F 54% 29.97 in 10.0 mi West 8.1 mph - N/A   Clear
7:35 PM 79.9 °F - 61.3 °F 53% 29.98 in 10.0 mi WNW 4.6 mph - N/A   Clear
7:55 PM 79.0 °F - 61.5 °F 55% 29.98 in 10.0 mi WNW 3.5 mph - N/A   Clear
8:15 PM 79.3 °F - 60.1 °F 52% 29.98 in 10.0 mi NW 3.5 mph - N/A   Clear
8:35 PM 77.7 °F - 60.1 °F 54% 29.97 in 10.0 mi WNW 3.5 mph - N/A   Clear
8:55 PM 75.2 °F - 61.5 °F 62% 29.97 in 10.0 mi WNW 3.5 mph - N/A   Clear
9:15 PM 71.8 °F - 62.4 °F 72% 29.98 in 10.0 mi WNW 3.5 mph - N/A   Clear
9:35 PM 74.3 °F - 61.2 °F 63% 29.98 in 10.0 mi NW 3.5 mph - N/A   Clear
9:55 PM 69.6 °F - 61.7 °F 76% 29.99 in 10.0 mi Calm Calm - N/A   Clear
10:15 PM 67.1 °F - 62.4 °F 85% 30.00 in 10.0 mi Calm Calm - N/A   Clear
10:35 PM 67.3 °F - 62.4 °F 84% 30.01 in 10.0 mi Calm Calm - N/A   Clear
10:55 PM 67.5 °F - 62.2 °F 83% 30.01 in 10.0 mi Calm Calm - N/A   Clear
11:15 PM 67.1 °F - 62.6 °F 85% 30.02 in 10.0 mi WNW 3.5 mph - N/A   Clear
11:35 PM 67.3 °F - 62.4 °F 84% 30.02 in 10.0 mi Calm Calm - N/A   Clear
11:55 PM 64.6 °F - 61.7 °F 90% 30.01 in 10.0 mi Calm Calm - N/A   Clear